Regional Weather Roundup
Issued by NWS

Home | Current Version | Previous Version | Graphics & Text | Print | Product List | Glossary On
Versions: 1 2 3 4 5 6 7 8 9 10 11 12 13 14 15 16 17 18 19 20 21 22 23 24 25 26 27 28 29 30 31 32 33 34 35 36 37 38 39 40 41 42 43 44 45 46 47 48 49 50
523
ASUS44 KMEG 131500
RWRTN
TENNESSEE HOURLY STATE WEATHER ROUNDUP
NATIONAL WEATHER SERVICE MEMPHIS TN
900 AM CST SAT FEB 13 2016

TNZ002-004-019-021-049-052-054-088>092-131600-
WEST TENNESSEE

CITY           SKY/WX    TMP DP  RH WIND       PRES   REMARKS
MEMPHIS INTL   MOSUNNY   30  11  45 NE15      30.59R WCI  19
NWS MEMPHIS      N/A     27 N/A N/A MISG        N/A
JACKSON        CLOUDY    25  11  55 N10       30.59R WCI  15
DYERSBURG      CLOUDY    21   9  58 NE16      30.64R WCI   7
UNION CITY     MOSUNNY   18   7  62 N13       30.61S WCI   4
PARIS          MOSUNNY   18   5  57 N12       30.60R WCI   5
LEXINGTON      PTSUNNY   21   5  49 NE9       30.57R WCI  11
$$

TNZ008-025-027-028-033-062-065-066-131600-
NORTH MIDDLE TENNESSEE

CITY           SKY/WX    TMP DP  RH WIND       PRES   REMARKS
NASHVILLE      MOSUNNY   24   5  44 N13G20    30.57R WCI  12
CLARKSVILLE    SUNNY     20   6  55 N13       30.60R WCI   7
COOKEVILLE     SUNNY     21   9  58 N10       30.47S WCI  10
CROSSVILLE     SUNNY     20   6  55 N12G20    30.40R WCI   8
$$

TNZ061-075-076-078-094-096-097-131600-
SOUTH MIDDLE TENNESSEE

CITY           SKY/WX    TMP DP  RH WIND       PRES   REMARKS
TULLAHOMA      SUNNY     21   7  53 N14       30.48S WCI   8
WINCHESTER     SUNNY     23  12  63 N13       30.49R WCI  11
MCMINNVILLE    SUNNY     23   9  54 N10       30.48S WCI  12
COLUMBIA       SUNNY     25  10  54 N10       30.53R WCI  15
SHELBYVILLE    SUNNY     25   9  50 N16       30.53R WCI  12
$$

TNZ017-018-042-046-047-131600-
NORTHEAST TENNESSEE

CITY           SKY/WX    TMP DP  RH WIND       PRES   REMARKS
TRI CITIES     PTSUNNY   21   9  59 NW10      30.36R WCI  10
$$

TNZ012-013-036-069-073-074-131600-
CENTRAL EAST TENNESSEE

CITY           SKY/WX    TMP DP  RH WIND       PRES   REMARKS
KNOXVILLE      MOSUNNY   26   9  48 N13       30.44R WCI  15
OAK RIDGE      SUNNY     25   4  40 NW10G17   30.47R WCI  15
GATLINBURG     MOSUNNY   23   9  54 N9        30.43R WCI  13
$$

TNZ083-085-099-131600-
SOUTHEAST TENNESSEE

CITY           SKY/WX    TMP DP  RH WIND       PRES   REMARKS
CHATTANOOGA    MOSUNNY   29   8  41 NW14      30.46R WCI  18
$$

SKY/WX REPORTED AS FAIR MEANS FEW OR NO CLOUDS BELOW
12 THOUSAND FEET.





USA.gov is the U.S. government's official web portal to all federal, state and local government web resources and services.